Theta_e
308 309 309 309 310 310 310 309 310 310 312 313 315 315 315 314 314 317 322 317 320 320 319 319 319 318 319 319 321 316 316 316 322 334 332 339 339 337 338 346 345 348 347 346 344
308 309 309 310 310 310 310 310 310 310 312 314 315 315 313 314 317 321 317 323 322 321 317 318 317 316 315 315 317 316 316 322 320 328 345 340 340 339 342 342 343 347 345 344 342
308 309 310 310 310 311 311 310 310 311 312 315 315 313 314 315 325 325 322 321 320 318 317 317 317 317 316 317 318 320 323 322 346 347 345 346 347 341 340 344 348 347 346 341 338
309 309 310 310 311 311 311 311 310 311 313 315 314 313 315 319 324 324 327 324 320 316 315 316 316 318 318 320 320 322 321 320 343 347 347 346 343 345 345 345 340 343 344 341 339
309 309 310 310 311 311 311 311 311 311 315 315 312 314 317 325 322 321 325 319 315 314 317 317 317 318 320 320 319 321 321 338 346 346 345 346 345 343 342 339 337 335 335 334 333
309 309 310 310 311 312 312 311 311 315 317 316 313 312 322 318 322 324 317 314 315 315 317 315 318 318 318 319 319 319 321 342 340 339 334 334 334 339 340 336 336 335 334 334 334
309 309 310 311 312 312 312 312 316 318 318 317 317 315 324 321 322 318 315 315 316 319 318 319 318 317 319 318 319 320 323 336 339 334 332 333 338 337 343 338 337 334 334 334 334
309 309 310 311 312 312 312 315 318 320 317 317 316 320 321 322 322 316 317 318 317 319 320 320 319 319 320 318 317 319 317 319 337 335 332 335 341 337 337 339 338 335 335 334 333
309 309 310 311 312 312 314 318 320 320 317 316 322 326 325 327 321 322 319 320 320 320 320 319 320 319 317 317 316 316 319 323 342 336 337 337 342 337 336 336 339 336 335 334 333
308 309 310 311 312 312 316 318 319 319 324 324 321 323 323 327 321 319 319 320 318 318 319 319 315 316 313 314 317 319 320 320 343 341 339 341 342 338 339 337 337 336 334 334 333
308 309 309 311 312 313 316 317 311 313 316 318 320 321 321 323 324 321 320 318 319 320 318 318 317 317 316 315 317 318 321 333 340 338 339 345 345 344 340 340 340 341 335 334 333
308 308 309 310 312 314 316 312 314 313 313 317 316 317 319 321 322 321 322 320 320 320 320 318 317 319 318 319 320 321 333 342 343 341 342 343 345 341 341 341 341 339 333 333 333
308 308 309 310 312 315 316 316 317 317 316 319 318 318 318 320 322 323 319 319 320 320 319 319 320 322 322 321 321 322 326 339 345 342 339 339 341 341 336 340 338 339 335 336 337
308 308 309 309 313 313 316 317 318 317 321 324 321 318 319 321 323 323 322 320 319 319 319 319 321 323 323 323 324 326 327 338 339 340 346 340 342 340 337 337 336 341 340 339 338
309 309 309 309 312 313 316 318 318 318 333 326 320 319 317 321 322 322 323 321 319 321 321 322 323 323 324 325 324 326 325 325 334 326 337 341 347 348 339 339 336 340 340 340 337
311 311 310 311 310 312 315 318 319 325 326 326 318 319 319 320 322 322 323 321 321 320 320 321 322 322 326 325 324 324 324 323 324 323 346 342 345 349 344 342 337 337 341 336 333
312 311 311 309 311 313 316 318 325 328 327 321 319 320 320 322 322 322 322 320 320 323 324 322 324 324 325 324 323 322 321 324 326 341 347 341 344 346 344 341 337 341 340 333 321
312 310 309 310 311 313 318 323 321 329 330 328 321 320 321 321 322 323 321 320 321 322 321 322 325 324 324 323 324 328 323 325 330 334 347 342 351 349 345 342 338 338 327 321 319
313 310 311 311 312 317 316 324 325 325 325 327 324 320 320 321 322 322 322 321 320 319 322 331 332 324 324 325 323 325 328 325 326 334 343 342 342 344 343 341 338 323 321 320 317
315 312 314 313 315 319 319 321 323 324 323 325 327 322 320 320 321 321 322 322 322 321 322 331 331 327 326 324 323 325 326 330 324 330 351 347 346 347 344 336 322 321 320 319 316
314 314 317 319 318 316 318 321 321 323 324 324 323 328 325 322 321 322 323 328 327 328 325 328 331 331 327 328 326 324 326 327 324 329 344 347 344 335 334 321 322 320 319 317 315
314 317 320 321 317 315 320 322 322 324 325 324 325 327 328 327 323 329 330 329 329 332 330 330 327 330 330 328 325 326 328 325 326 328 334 338 340 327 322 321 321 320 318 316 314
314 316 319 320 320 318 316 321 322 325 326 323 323 328 329 329 327 330 328 328 329 328 329 332 329 328 332 330 327 325 327 326 323 326 339 342 336 323 320 318 320 319 318 316 314
312 318 315 317 317 321 322 320 326 327 321 321 321 325 329 328 329 328 328 326 326 328 333 329 326 328 332 334 328 329 328 326 325 330 335 334 329 323 321 320 319 318 316 315 314
311 316 317 319 320 320 319 320 321 325 325 323 326 328 330 329 330 328 326 325 327 330 329 326 328 327 327 327 326 327 326 328 329 332 332 330 326 321 321 320 318 316 316 317 316
313 316 315 318 318 323 319 319 320 323 326 326 327 327 329 331 331 328 326 325 328 330 329 327 328 328 324 326 327 327 329 329 328 327 327 325 322 320 319 318 317 315 317 316 315
314 316 317 319 319 320 320 319 324 326 325 325 330 332 330 329 330 326 325 324 326 329 329 328 324 326 325 327 329 329 327 327 326 325 323 322 320 320 320 318 315 315 316 316 317
Wind_Speed
18 20 22 25 27 29 31 32 34 36 29 28 31 26 21 17 13 6 5 7 5 8 9 5 3 1 2 3 5 4 3 4 4 9 7 6 4 7 11 11 6 5 6 4 1
19 22 24 26 28 30 33 33 36 33 28 30 28 21 18 15 10 9 9 6 8 10 9 6 1 5 3 3 2 4 4 4 2 9 19 9 12 9 8 10 7 8 14 16 10
19 23 25 27 29 32 34 35 37 29 28 30 22 19 14 9 4 6 7 14 9 10 7 5 1 3 4 3 4 4 2 6 8 22 31 32 25 10 18 10 6 7 6 7 12
20 23 26 29 31 34 35 38 36 26 28 26 19 16 9 3 1 4 4 13 12 9 6 3 5 1 2 3 3 3 8 10 11 17 20 32 26 22 25 14 14 7 2 2 1
20 22 26 29 31 34 36 40 32 26 27 18 15 11 4 2 7 8 9 11 11 8 4 2 3 3 2 5 8 1 3 7 13 19 17 27 27 19 19 18 18 17 13 11 14
19 22 25 29 32 35 39 38 30 28 23 12 11 9 3 3 5 7 11 12 9 9 2 8 4 4 3 3 3 4 4 12 2 10 10 20 11 16 8 13 17 15 14 12 18
20 24 27 30 34 36 41 35 32 29 13 8 9 5 1 10 6 6 13 14 14 10 2 10 5 4 1 8 3 2 7 7 8 2 8 7 9 9 6 10 17 20 15 14 18
22 25 29 32 35 39 39 34 39 16 5 5 8 3 6 1 5 9 11 9 12 14 13 21 20 4 2 2 9 6 5 5 4 2 2 6 2 6 3 8 14 20 16 16 12
22 26 29 31 34 40 36 36 16 3 1 4 3 1 8 10 8 15 14 10 13 17 19 22 3 2 6 4 6 6 3 8 2 7 3 4 4 6 9 10 8 11 15 17 12
24 27 29 32 33 37 31 28 9 4 5 3 3 3 5 2 5 17 19 16 6 6 5 3 4 1 3 5 5 5 3 3 7 5 10 11 3 11 5 7 3 10 7 12 11
24 27 30 32 33 30 29 9 7 5 5 5 10 6 14 11 9 7 15 9 4 3 6 4 2 8 11 8 8 7 3 1 11 17 8 1 2 7 9 4 2 5 4 9 9
23 26 30 33 36 17 20 5 3 6 10 11 15 10 22 14 4 6 11 4 4 5 1 4 7 13 7 9 9 12 5 5 9 8 8 5 7 9 7 4 4 5 4 8 6
22 25 28 32 27 9 17 9 17 20 3 9 7 6 6 8 7 7 9 6 4 3 5 6 11 4 5 13 11 6 8 10 11 16 14 16 4 5 4 6 3 8 5 5 5
21 23 26 33 6 25 8 19 20 11 3 7 4 7 5 5 5 9 9 8 4 7 3 7 14 12 13 10 4 4 4 18 21 8 6 8 2 4 4 3 2 6 5 4 5
21 22 24 25 18 10 12 21 24 1 4 1 3 5 8 8 3 4 15 4 6 7 4 9 12 11 7 6 3 6 1 5 17 10 8 4 5 1 2 4 3 2 3 1 6
22 23 24 15 18 16 20 25 3 3 5 3 6 5 5 3 4 4 6 5 5 7 6 14 6 5 5 3 2 0 4 8 5 4 5 5 4 3 4 5 5 5 4 6 6
23 24 25 24 7 15 22 6 3 2 6 2 4 5 5 6 5 5 5 7 6 3 2 7 4 3 5 4 7 8 7 4 5 5 3 4 7 3 2 7 8 6 8 4 14
25 27 21 26 25 21 10 3 2 6 7 13 6 5 6 5 5 2 5 5 3 4 1 2 7 4 2 5 5 2 7 5 2 4 4 8 3 3 2 7 11 10 15 14 10
27 23 17 25 12 8 4 2 5 5 8 9 3 5 4 5 4 6 9 7 8 7 5 2 5 3 6 3 7 1 2 5 7 5 5 2 2 2 7 8 7 17 16 11 8
21 13 16 15 9 7 4 5 5 3 8 5 6 1 6 5 5 3 6 6 4 11 7 6 2 2 1 6 6 5 1 5 4 4 4 4 3 5 10 10 16 15 14 10 7
9 4 7 6 19 4 3 6 6 9 7 5 3 2 3 4 8 3 3 3 4 1 5 2 3 6 5 3 3 5 3 6 5 4 5 4 2 5 10 15 16 11 10 8 7
3 2 3 23 3 1 3 4 6 10 16 7 3 4 3 5 4 2 1 1 1 1 4 3 5 4 4 6 3 6 4 5 5 2 4 4 3 8 15 16 15 12 8 7 8
2 3 8 8 3 3 5 5 9 10 7 4 4 1 4 3 1 4 4 6 4 4 3 1 3 3 7 7 7 6 4 5 6 3 1 5 5 6 13 13 12 13 9 8 7
1 3 4 2 2 4 0 6 4 7 6 5 6 5 4 5 2 4 3 6 5 4 4 8 3 6 5 6 4 6 9 6 6 4 3 2 13 6 9 15 11 10 8 7 7
1 4 3 3 4 5 4 4 5 5 3 3 4 4 1 3 1 4 4 3 5 5 4 5 3 3 3 9 9 10 12 10 8 7 5 9 10 7 10 13 10 9 9 9 8
1 2 4 4 5 5 7 7 9 7 4 6 4 8 3 4 3 7 7 3 3 5 4 4 1 3 5 8 13 10 16 17 16 13 12 13 6 6 7 8 8 8 9 8 9
4 4 2 5 5 2 2 7 7 2 5 7 6 3 6 6 9 11 3 4 8 6 2 3 3 3 2 9 8 6 2 9 6 5 14 6 8 8 6 8 7 7 7 8 9
Wind_Direction
344 344 344 345 344 345 342 342 339 338 333 329 331 332 330 320 320 298 243 229 214 187 177 134 203 234 281 263 196 128 40 296 288 74 101 129 69 19 50 86 40 9 36 8 36
341 342 344 343 342 341 340 340 338 337 334 329 332 335 331 317 324 258 246 235 233 204 183 144 50 59 324 254 238 116 122 252 226 121 90 132 109 118 99 90 73 43 36 30 1
340 340 341 342 340 339 338 338 337 336 334 331 333 333 327 321 323 254 239 227 213 197 196 158 106 145 212 183 219 173 209 126 85 94 91 85 73 110 103 74 51 91 73 44 37
340 339 339 338 337 337 336 335 335 335 333 332 333 332 324 334 281 302 245 200 211 212 208 101 68 89 259 288 173 318 224 143 166 107 100 92 98 82 91 106 92 116 114 57 92
336 336 335 334 335 335 333 333 333 332 332 330 335 337 320 288 251 272 190 198 207 185 196 172 129 159 346 295 336 215 187 91 150 107 100 93 88 94 92 113 116 112 109 98 80
332 333 332 333 333 334 333 330 330 330 327 325 336 331 310 297 293 276 195 197 203 193 160 205 189 181 238 257 129 321 30 132 358 69 66 96 91 106 85 122 123 111 98 88 85
330 332 334 335 334 336 333 330 329 323 315 317 332 326 290 239 290 217 198 203 209 208 236 262 272 127 305 336 224 221 97 75 19 10 143 96 56 84 144 115 103 116 114 101 90
331 334 337 337 337 337 332 330 328 315 295 312 320 297 249 301 253 220 207 233 235 241 252 274 282 282 159 288 345 347 84 99 259 255 233 47 166 112 274 136 107 115 119 107 100
331 335 337 337 338 337 330 332 330 343 329 307 311 226 270 322 167 222 211 221 242 261 261 266 0 231 8 64 355 7 238 113 163 351 111 83 198 217 194 98 127 108 124 121 126
332 335 337 336 338 339 333 336 359 52 22 16 245 327 286 272 208 211 215 232 252 311 344 349 46 4 24 73 234 249 5 282 127 4 64 81 134 248 44 107 144 81 137 127 140
332 334 335 335 338 340 343 360 10 342 16 258 256 279 291 293 280 200 220 211 239 332 233 276 79 232 237 203 230 249 193 271 134 150 109 81 163 296 359 346 93 62 159 140 151
330 332 334 333 336 343 359 31 61 288 299 272 246 247 258 269 300 264 221 153 177 226 333 356 259 245 214 244 247 270 167 117 78 102 82 136 35 341 343 342 44 20 175 150 132
326 331 333 332 336 354 347 16 354 347 298 291 222 203 216 165 218 248 147 197 227 244 243 191 249 323 225 274 269 234 127 187 132 88 78 110 34 332 335 344 60 27 102 67 83
322 329 332 335 350 336 308 346 346 333 347 274 218 251 177 171 273 222 206 166 189 240 226 243 274 259 272 266 173 104 173 128 142 120 182 219 118 256 272 286 9 51 47 53 19
320 327 327 335 304 313 319 336 333 36 344 201 165 180 153 160 256 212 214 159 197 237 98 252 291 293 229 223 127 190 161 107 175 200 116 137 104 272 26 291 277 150 183 43 38
318 323 322 327 306 294 329 326 319 45 264 236 154 160 121 229 266 316 170 153 207 238 222 255 250 235 176 166 167 233 34 40 47 79 53 295 139 181 195 199 141 197 172 144 188
314 312 310 298 257 306 319 349 51 173 299 51 200 153 172 188 235 204 205 163 191 172 300 319 261 207 131 73 356 62 59 358 13 35 153 325 50 279 25 151 149 160 174 111 91
312 310 303 283 285 290 326 35 162 297 292 317 166 155 177 205 244 250 176 212 192 166 316 247 328 179 178 151 174 20 131 146 188 161 165 24 48 346 49 126 148 160 95 93 95
319 318 291 279 275 243 71 52 214 234 353 316 2 137 234 230 195 177 200 204 218 165 188 349 283 86 108 124 122 271 77 174 105 53 80 95 11 36 111 128 144 106 98 99 89
329 313 274 288 213 160 79 240 257 287 323 335 48 194 193 240 159 185 188 217 215 192 162 200 5 22 188 47 25 89 192 44 11 111 112 121 125 156 176 147 101 114 113 109 96
317 334 294 167 153 62 184 242 284 287 321 341 314 304 276 260 194 208 207 326 147 208 94 73 91 311 39 18 161 12 31 59 108 115 140 138 72 188 137 118 118 117 121 132 113
309 304 188 154 83 166 197 224 297 300 308 265 259 261 234 289 181 147 77 4 54 113 85 332 129 69 40 336 92 98 117 110 109 310 69 107 43 107 119 128 128 130 121 101 109
260 256 252 215 178 242 279 285 281 284 275 318 305 223 271 261 152 130 112 352 48 77 136 48 1 69 346 354 6 52 14 102 110 88 82 116 150 130 118 118 122 124 124 119 116
338 307 307 60 175 196 86 269 259 286 270 241 263 304 343 347 1 123 111 32 21 63 110 92 87 135 169 214 127 75 58 52 99 90 111 64 133 148 122 120 133 129 122 114 109
184 251 225 289 284 232 169 292 312 319 297 266 298 219 22 324 12 123 95 116 18 356 62 93 82 68 17 110 101 108 89 76 83 149 118 169 133 164 146 135 132 126 123 117 112
249 16 342 279 267 226 179 218 230 259 255 312 321 312 302 210 187 230 137 134 161 10 61 23 164 63 55 98 95 92 97 90 96 99 91 119 89 128 111 108 110 114 117 112 109
269 315 144 268 296 285 239 222 230 200 290 220 277 317 321 281 210 194 178 139 149 127 94 79 105 78 131 121 86 44 357 97 103 100 135 153 162 151 120 118 126 126 124 120 116